"Pseudo-MPEC" for P10Rx6r

Created 2019 Sep 17 8:07:06 UT using Find_Orb

Click here for an explanation of pseudo-MPECs

 
 Astrometry: 
     P10Rx6r  C2019 09 10CCVQr#Xpxw0sAstrometry+2GXP.I:OJJg-)!H=9#;\4l.k$Yi!iF51
     P10Rx6r  C2019 09 10ca!dsRredacted;rBF!FJiclick.SD0K]4f@H2(m6herea\lPyS,F51
     P10Rx6r  C2019 09 10cL8\H87nforZVp$gubU;\WMdJ=L,/V,bohT+6Fexplanationw_cF51

Station data:
(F51) Pan-STARRS 1, Haleakala  (N20.707235 W156.255910)  US/Hawaii.
   Observers N. Primak, A. Schultz, S. Watters, J. Thiel, T. Goggia. Measurer
   PS1 Science Consortium. 1.8-m Ritchey-Chrétien + CCD.

Orbital elements:  P10Rx6r
   Perihelion 2019 Aug 31.086019 +/- 36.7 TT =  2:03:52 (JD 2458726.586019)
Epoch 2019 Sep 11.0 TT = JDT 2458737.5   Earth MOID: 0.3467   Ju: 0.7821
M   2.01716278 +/- 43               Ma: 0.0127                AutoNEOCP
n   0.18482373 +/- 0.382            Peri.  221.67661 +/- 80
a   3.05232583 +/- 4.35             Node   135.95398 +/- 60
e   0.5633630 +/- 0.249             Incl.    9.24818 +/- 36
P   5.33                   H 21.1   G  0.15   U 12.1  SR
q 1.33275823 +/- 0.498    Q 4.77189342 +/- 26.6
From 3 observations 2019 Sept. 10 (36.1 min); mean residual 0".06
Residuals in arcseconds: 
190910 F51  .02-  .05+    190910 F51  .04+  .10-    190910 F51  .04-  .05+    

Ephemerides (geocentric):
Date (UTC) HH   RA              Dec         delta   r     elong  mag " sig PA
---- -- -- --  -------------   -----------  ------ ------ -----  --- ---- ---
2019 09 17 08  03 29 23.323   -02 11 55.72  .50909 1.3466 122.1 21.9  61d   0
2019 09 17 09  03 29 27.951   -02 12 17.15  .50906 1.3467 122.1 21.9  61d   0
2019 09 17 10  03 29 32.574   -02 12 38.59  .50903 1.3467 122.1 21.9  62d   0
2019 09 17 11  03 29 37.189   -02 13 00.03  .50900 1.3468 122.1 21.9  62d   0
2019 09 17 12  03 29 41.799   -02 13 21.47  .50897 1.3469 122.2 21.9  62d   0
2019 09 17 13  03 29 46.403   -02 13 42.92  .50894 1.3469 122.2 21.9  62d   0
2019 09 17 14  03 29 51.000   -02 14 04.38  .50891 1.3470 122.2 21.9  62d   0
2019 09 17 15  03 29 55.591   -02 14 25.83  .50888 1.3471 122.2 21.9  62d   0
2019 09 17 16  03 30 00.176   -02 14 47.29  .50885 1.3471 122.2 21.9  63d   0
2019 09 17 17  03 30 04.755   -02 15 08.76  .50882 1.3472 122.2 21.9  63d   0
2019 09 17 18  03 30 09.327   -02 15 30.23  .50879 1.3473 122.3 21.9  63d   0
2019 09 17 19  03 30 13.894   -02 15 51.71  .50876 1.3473 122.3 21.9  61d 179
2019 09 17 20  03 30 18.454   -02 16 13.18  .50873 1.3474 122.3 21.9  61d 179
2019 09 17 21  03 30 23.008   -02 16 34.67  .50871 1.3475 122.3 21.9  62d 179
2019 09 17 22  03 30 27.555   -02 16 56.15  .50868 1.3475 122.3 21.9  62d 179
2019 09 17 23  03 30 32.097   -02 17 17.64  .50865 1.3476 122.4 21.9  62d 179
2019 09 18 00  03 30 36.632   -02 17 39.13  .50862 1.3477 122.4 21.9  62d 179
2019 09 18 01  03 30 41.161   -02 18 00.63  .50859 1.3477 122.4 21.9  62d 179
2019 09 18 02  03 30 45.684   -02 18 22.13  .50856 1.3478 122.4 21.9  62d 179
2019 09 18 03  03 30 50.200   -02 18 43.64  .50853 1.3479 122.4 21.9  62d 179
2019 09 18 04  03 30 54.710   -02 19 05.15  .50851 1.3480 122.4 21.9  62d 179
2019 09 18 05  03 30 59.214   -02 19 26.66  .50848 1.3480 122.5 21.9  62d 179
2019 09 18 06  03 31 03.712   -02 19 48.17  .50845 1.3481 122.5 21.9  62d 179
2019 09 18 07  03 31 08.203   -02 20 09.69  .50842 1.3482 122.5 21.9  62d 179
2019 09 18 08  03 31 12.689   -02 20 31.21  .50839 1.3482 122.5 21.9  63d 179
2019 09 18 09  03 31 17.168   -02 20 52.74  .50837 1.3483 122.5 21.9  63d 179
2019 09 18 10  03 31 21.640   -02 21 14.27  .50834 1.3484 122.6 21.9  63d 179
2019 09 18 11  03 31 26.107   -02 21 35.80  .50831 1.3484 122.6 21.9  63d 179
2019 09 18 12  03 31 30.567   -02 21 57.33  .50828 1.3485 122.6 21.9  63d 179
2019 09 18 13  03 31 35.021   -02 22 18.87  .50826 1.3486 122.6 21.9  63d 179
2019 09 18 14  03 31 39.469   -02 22 40.41  .50823 1.3487 122.6 21.9  63d 179
2019 09 18 15  03 31 43.910   -02 23 01.96  .50820 1.3487 122.7 21.9  63d 179
2019 09 18 16  03 31 48.345   -02 23 23.51  .50818 1.3488 122.7 21.9  63d 179
2019 09 18 17  03 31 52.774   -02 23 45.06  .50815 1.3489 122.7 21.9  63d 179
2019 09 18 18  03 31 57.196   -02 24 06.61  .50812 1.3489 122.7 21.9  63d 179
2019 09 18 19  03 32 01.612   -02 24 28.17  .50810 1.3490 122.7 21.9  63d 179
2019 09 18 20  03 32 06.022   -02 24 49.72  .50807 1.3491 122.7 21.9  63d 179
2019 09 18 21  03 32 10.426   -02 25 11.29  .50804 1.3492 122.8 21.9  63d 179
2019 09 18 22  03 32 14.823   -02 25 32.85  .50802 1.3492 122.8 21.9  64d 179
2019 09 18 23  03 32 19.214   -02 25 54.42  .50799 1.3493 122.8 21.9  64d 179
2019 09 19 00  03 32 23.599   -02 26 15.99  .50796 1.3494 122.8 21.9  64d 179
2019 09 19 01  03 32 27.977   -02 26 37.56  .50794 1.3494 122.8 21.9  64d 179
2019 09 19 02  03 32 32.350   -02 26 59.14  .50791 1.3495 122.9 21.9  64d 179
2019 09 19 03  03 32 36.715   -02 27 20.71  .50789 1.3496 122.9 21.9  64d 179
2019 09 19 04  03 32 41.075   -02 27 42.29  .50786 1.3497 122.9 21.9  64d 179
2019 09 19 05  03 32 45.428   -02 28 03.88  .50784 1.3497 122.9 21.9  64d 179
2019 09 19 06  03 32 49.775   -02 28 25.46  .50781 1.3498 122.9 21.9  64d 179
2019 09 19 07  03 32 54.115   -02 28 47.05  .50779 1.3499 122.9 21.9  64d 179